{"data":{"norad_id":64045,"intl_designator":"2025-102Z","name":"STARLINK-34033","alt_names":[],"object_type":"PAYLOAD","status":"ACTIVE","operator":null,"country":"US","launch_date":"2025-05-16","launch_site_code":"AFWTR","launch_vehicle":null,"mission":null,"orbit_class":"UNKNOWN","rcs_meters":null,"size_class":null,"mass_kg":null,"dimensions":null,"purposes":["comms"],"wikipedia_slug":null,"has_3d_model":false,"image_url":null,"decayed_at":null,"tle_current":{"epoch":"2026-09-20T22:00:30.578976Z","epoch_age_seconds":107525,"freshness":"FRESH","line1":"1 64045U 25102Z   26263.91702059  .00011614  00000+0  40769-3 0  9992","line2":"2 64045  70.0003 339.8874 0003515 271.0905  88.9868 15.29591686 75181","mean_motion":15.29591686,"eccentricity":0.0003515,"inclination_deg":70.0003,"raan_deg":339.8874,"arg_perigee_deg":271.0905,"mean_anomaly_deg":88.9868,"bstar":0.00040769,"rev_number":7518,"period_min":94.142771118592,"perigee_km":474.62239540118,"apogee_km":479.44157919925,"semimajor_km":6855.1689873002,"source":"CELESTRAK","updated_at":"2026-09-21T09:00:35.190745Z"}}}